Location: Newark
(7.0858°N, 171.3717°E)
Time: 08:39:04
(UTC+00:00)

S-56A Canister/Altair - Pass Details

Date: 28 November 2020
Orbit: 633 x 2499 km, 38.9° (Epoch: 27 January)

Event Time Altitude Azimuth Distance (km) Brightness Sun altitude
Rises 01:34:56 0° 191° (S) 5,823 12.5 56.5°
Reaches altitude 10° 01:43:09 10° 162° (SSE) 5,087 12.2 55.3°
Maximum altitude 01:47:43 12° 144° (SE) 4,993 12.0 54.7°
Drops below altitude 10° 01:52:19 10° 126° (SE) 5,154 11.9 54.0°
Sets 02:00:38 0° 99° (E) 6,006 11.9 52.7°
